Weather Roundup
Issued by NWS Chicago, IL

Home | Current Version | Previous Version | Graphics & Text | Print | Product List | Glossary On
Versions: 1 2 3 4 5 6 7 8 9 10 11 12 13 14 15 16 17 18 19 20 21 22 23 24 25 26 27 28 29 30 31 32 33 34 35 36 37 38 39 40 41 42 43 44 45 46 47 48 49 50
000
NZUS59 KLOT 290400
HRRLOT

CHICAGO AREA WEATHER ROUNDUP
NATIONAL WEATHER SERVICE CHICAGO/ROMEOVILLE IL
1000 PM CST FRI NOV 28 2014

NOTE: "FAIR" INDICATES FEW OR NO CLOUDS BELOW 12,000 FEET WITH NO
SIGNIFICANT WEATHER AND/OR OBSTRUCTIONS TO VISIBILITY.

* THESE STATIONS ARE NOT UNDER NWS QUALITY CONTROL. THEY ALSO MAY NOT
  REPORT WEATHER SUCH AS PRECIPITATION OR FOG.

ILZ005-006-012>014-019>023-290500-
NORTHEAST ILLINOIS

CITY           SKY/WX    TMP DP  RH WIND       PRES   REMARKS
OHARE          CLOUDY    33  29  85 S8        29.91F WCI  26
MIDWAY         CLOUDY    36  28  73 S10       29.93F
AURORA         CLOUDY    34  28  79 S10       29.90F HAZE    WCI  26
WAUKEGAN       CLOUDY    32  27  81 S8        29.90F WCI  25
DUPAGE AIRPORT CLOUDY    34  30  85 S8        29.91F WCI  27
WHEELING       CLOUDY    34  29  82 S8        29.93F WCI  27
NORTHERLY IS     N/A     35  27  73 S8          N/A  WCI  29
$$

WIZ051-052-058>065-066-070>072-290500-
SOUTHEAST WISCONSIN

CITY           SKY/WX    TMP DP  RH WIND       PRES   REMARKS
MILWAUKEE      CLOUDY    32  26  78 S8        29.90S WCI  25
KENOSHA*       CLOUDY    31  27  85 S5        29.90F WCI  26
RACINE*        CLOUDY    33  27  78 S8        29.93F WCI  26
$$

INZ001>003-010>013-019-020-290500-
NORTHWEST INDIANA

CITY           SKY/WX    TMP DP  RH WIND       PRES   REMARKS
GARY*          CLOUDY    36  27  69 SE9       29.95S
MICHIGAN CITY* NOT AVBL
RENSSELAER*    NOT AVBL
$$

LMZ740>746-290500-
SOUTHERN LAKE MICHIGAN

STATION/POSITION TIME  SKY/WX   TEMP WIND        PRES    VSBY
                                AIR  DIR/SP/G
                 (UTC)          (F)  (DEG/KT/KT) (MB)    (MI)
HARRISON CRIB    0300            34  180/ 15/ 18   N/A
BURNHAM HARBOR   0400            35  190/  6/ 13   N/A
CALUMET HARBOR   0300            34  170/  7/ 11 1012.8F
BURNS HARBOR     NOT AVBL
MICHIGAN CITY    0300            32  140/ 13/ 19   N/A
$$

ABBREVIATIONS USED IN REMARKS
   TC - TEMPERATURE IN CELSIUS
  WCI - WIND CHILL INDEX
   HX - HEAT INDEX
  VSB - VISIBILITY
$$



USA.gov is the U.S. government's official web portal to all federal, state and local government web resources and services.